Showing default

AEROCUBE 6A, 40045

Orbit data source: Space-Track

AEROCUBE 6A, 40045 is a payload satellite owned by AERO (US) in SSO that was launched on Thu, 19 Jun 2014 UTC via a DNEPR launch vehicle from the Orenburg, Russia (OREN). Payload-class satellites include a variety of spacecraft equipped with specific instruments for various scientific and technological missions. These include communications satellites like Starlink; space stations such as the ISS; scientific satellites like the Hubble; Earth observation satellites from companies like Planet Labs, Umbra, and HawkEye 360; GPS; miniature CubeSats for education and research; and military/defense satellites.

Loading next visibility...
Identifier
40045, 2014-033AM
Orbit
SSO
Country
Flag of USUS
Related business
Manufacturer
AERO
Mission
Operational Defense Technology
Bus & Motor
CUBESAT 0.5U, Unknown motor
Mass
~0.5 kg wet, ~0.5 kg dry
Launch date (UTC)
2014-06-19 (12 years ago)
Launch vehicle
DNEPR
Launch site
Orenburg, Russia (OREN)
Object type
Payload
Rocket body
Debris
Shape & HBR
Box + 2 Pan, 0.1 m
Radar Cross Section
0.010 m², Medium (>0.1 m² and < 1m²)

Expand to show TLE details & history
Last TLE update: 4 days ago

TLE from 4 days ago
0 AEROCUBE 6A
1 40045U 14033AM  26154.93166257  .00006356  00000-0  53535-3 0  9995
2 40045  97.7216 322.0234 0039359  61.3448 299.1723 14.97953444644634
Epoch: 2026-06-03T22:21Z
TLE epoch observation values (Epoch: 2026-06-03T22:21:35.646Z)
Latitude
-0.00002°
Longitude
94.24168°
Altitude
563.015 km
Speed
7.587 km/s
True Right ascension
21h 28m 05s
True Declination
0° 00' 00"
Sunlit
Object was in daylight at epoch
Visualization orbit readout
Latitude
Unknown
Longitude
Unknown
Altitude
Unknown
Speed
Unknown
Apparent Right ascension
Unknown
Apparent Declination
Unknown
Sunlit
N/A
Visualization observer readout
Local Sidereal Time
12:24:58
Azimuth
Unknown
Elevation
Unknown
Doppler factor
Unknown
Orbital elements
Apogee altitude
597.578 km
Perigee altitude
542.881 km
Semi-major axis
6,948.366 km
Eccentricity
0.00394
Inclination
97.7216°
RAAN
322.0234°
Arg. of periapsis
61.3448°
True anomaly
298.77754°
Mean anomaly
299.1723°
Eccentric anomaly
298.97502°
Mean motion
3.74731 °/min
Orbital period
96.07 mins
BSTAR
0.00053535
Loading maneuver chart data...
Computing Atmospheric mass density...
Loading historical data...
Loading historical data...
Loading historical data...
Loading historical data...
Loading historical data...
Loading historical data...
Loading historical data...

Documentation

Showing up to 5 results
|